Rutland, VT

6:37 PM EST on December 16, 2017 (GMT -0500)
Rutland State

Weather History for KRUT - November, 2012

Change the Weather History Date:

Friday, November 2, 2012

  Actual Average Record
Temperature  
Mean Temperature 42 °F -  
Max Temperature 45 °F - 79 °F (1950)
Min Temperature 39 °F - 17 °F (1992)
Degree Days  
Heating Degree Days 23    
Month to date heating degree days 45  
Since 1 July heating degree days 680  
Cooling Degree Days 0    
Month to date cooling degree days 0  
Year to date cooling degree days 411  
Moisture  
Dew Point 33 °F    
Average Humidity 70    
Maximum Humidity 82    
Minimum Humidity 57    
Precipitation  
Precipitation 0.00 in - 0.96 in (1984)
Month to date precipitation 0.00  
Year to date precipitation 21.48  
Sea Level Pressure  
Sea Level Pressure 29.57 in    
Wind  
Wind Speed 7 mph (West)    
Max Wind Speed 10 mph    
Max Gust Speed -    
Visibility 10 miles    
Events      
T = Trace of Precipitation, MM = Missing Value Source: NWS Daily Summary

Daily Weather History Graph

Daily Weather History Graph

Search for Another Location

Airport or City:

Trip Planner

Search our weather history database for the weather conditions in past years. The results will help you decide how hot, cold, wet, or windy it might be!

Date:

Astronomy

Nov. 02, 2012 Rise Set
Actual Time 7:29 AM EDT 5:40 PM EDT
Civil Twilight 6:59 AM EDT 6:10 PM EDT
Nautical Twilight 6:25 AM EDT 6:44 PM EDT
Astronomical Twilight 5:52 AM EDT 7:17 PM EDT
Moon 8:22 PM EDT (11/2) 10:51 AM EDT (11/2)
Length of Visible Light 11h 11m
Length of Day
10h 11m
Waning Gibbous, 87% of the Moon is Illuminated
Nov 2
Waning Gibbous
Nov 6
Last Quarter
Nov 13
New
Nov 20
First Quarter
Nov 28
Full

Hourly Weather History & Observations

Time (EDT) Temp. Windchill Dew Point Humidity Pressure Visibility Wind Dir Wind Speed Gust Speed Precip Events Conditions
12:15 AM 42.8 °F 38.6 °F 37.4 °F 81% 29.52 in 10.0 mi SW 6.9 mph - N/A   Mostly Cloudy
12:35 AM 42.8 °F 38.0 °F 37.4 °F 81% 29.52 in 10.0 mi WSW 8.1 mph - N/A   Mostly Cloudy
12:55 AM 42.8 °F 39.3 °F 37.4 °F 81% 29.52 in 10.0 mi WSW 5.8 mph - N/A   Overcast
1:15 AM 42.8 °F 40.1 °F 37.4 °F 81% 29.53 in 10.0 mi SW 4.6 mph - N/A   Overcast
1:35 AM 42.8 °F 37.5 °F 35.6 °F 76% 29.52 in 10.0 mi WSW 9.2 mph - N/A   Overcast
1:55 AM 42.8 °F 37.5 °F 35.6 °F 76% 29.52 in 10.0 mi WSW 9.2 mph - N/A   Mostly Cloudy
2:15 AM 42.8 °F 38.6 °F 35.6 °F 76% 29.53 in 10.0 mi WSW 6.9 mph - N/A   Partly Cloudy
2:35 AM 42.8 °F 39.3 °F 35.6 °F 76% 29.53 in 10.0 mi WSW 5.8 mph - N/A   Partly Cloudy
2:55 AM 42.8 °F 38.0 °F 35.6 °F 76% 29.52 in 10.0 mi WSW 8.1 mph - N/A   Mostly Cloudy
3:15 AM 42.8 °F 38.0 °F 35.6 °F 76% 29.52 in 10.0 mi WSW 8.1 mph - N/A   Overcast
3:35 AM 42.8 °F 38.6 °F 35.6 °F 76% 29.52 in 10.0 mi WSW 6.9 mph - N/A   Overcast
3:55 AM 42.8 °F 38.6 °F 35.6 °F 76% 29.52 in 10.0 mi WSW 6.9 mph - N/A   Mostly Cloudy
4:15 AM 42.8 °F 39.3 °F 37.4 °F 81% 29.52 in 10.0 mi WSW 5.8 mph - N/A   Overcast
4:35 AM 42.8 °F 37.5 °F 35.6 °F 76% 29.52 in 10.0 mi WSW 9.2 mph - N/A   Overcast
4:55 AM 42.8 °F 38.6 °F 35.6 °F 76% 29.52 in 10.0 mi WSW 6.9 mph - N/A   Overcast
5:15 AM 42.8 °F 39.3 °F 35.6 °F 76% 29.53 in 10.0 mi SW 5.8 mph - N/A   Overcast
5:35 AM 42.8 °F 41.1 °F 35.6 °F 76% 29.53 in 10.0 mi SW 3.5 mph - N/A   Overcast
5:56 AM 41.0 °F 35.2 °F 35.6 °F 81% 29.53 in 10.0 mi SW 9.2 mph - N/A   Mostly Cloudy
6:15 AM 42.8 °F 39.3 °F 35.6 °F 76% 29.53 in 10.0 mi WSW 5.8 mph - N/A   Mostly Cloudy
6:35 AM 41.0 °F 37.1 °F 35.6 °F 81% 29.53 in 10.0 mi WSW 5.8 mph - N/A   Overcast
6:55 AM 41.0 °F 35.8 °F 35.6 °F 81% 29.53 in 10.0 mi WSW 8.1 mph - N/A   Overcast
7:15 AM 41.0 °F 36.4 °F 35.6 °F 81% 29.53 in 10.0 mi WSW 6.9 mph - N/A   Mostly Cloudy
7:35 AM 41.0 °F 37.1 °F 35.6 °F 81% 29.54 in 10.0 mi WSW 5.8 mph - N/A   Overcast
7:55 AM 41.0 °F 38.0 °F 35.6 °F 81% 29.54 in 10.0 mi West 4.6 mph - N/A   Overcast
8:15 AM 41.0 °F 37.1 °F 35.6 °F 81% 29.55 in 10.0 mi West 5.8 mph - N/A   Mostly Cloudy
8:36 AM 41.0 °F 37.1 °F 35.6 °F 81% 29.55 in 10.0 mi WSW 5.8 mph - N/A   Mostly Cloudy
8:55 AM 42.8 °F 37.0 °F 35.6 °F 76% 29.55 in 10.0 mi SW 10.4 mph - N/A   Overcast
9:15 AM 42.8 °F 38.6 °F 35.6 °F 76% 29.56 in 10.0 mi West 6.9 mph - N/A   Overcast
9:36 AM 42.8 °F 39.3 °F 35.6 °F 76% 29.56 in 10.0 mi West 5.8 mph - N/A   Mostly Cloudy
9:55 AM 42.8 °F 37.0 °F 33.8 °F 70% 29.55 in 10.0 mi WSW 10.4 mph - N/A   Overcast
10:15 AM 42.8 °F 38.0 °F 33.8 °F 70% 29.56 in 10.0 mi WSW 8.1 mph - N/A   Overcast
10:35 AM 44.6 °F 40.7 °F 32.0 °F 61% 29.56 in 10.0 mi WSW 6.9 mph - N/A   Overcast
10:55 AM 44.6 °F 40.2 °F 30.2 °F 57% 29.56 in 10.0 mi WSW 8.1 mph - N/A   Mostly Cloudy
11:15 AM 44.6 °F 39.2 °F 32.0 °F 61% 29.57 in 10.0 mi WSW 10.4 mph - N/A   Overcast
11:35 AM 44.6 °F 40.7 °F 32.0 °F 61% 29.57 in 10.0 mi West 6.9 mph - N/A   Overcast
11:55 AM 44.6 °F 39.7 °F 33.8 °F 66% 29.57 in 10.0 mi West 9.2 mph - N/A   Overcast
12:15 PM 44.6 °F 41.4 °F 30.2 °F 57% 29.57 in 10.0 mi West 5.8 mph - N/A   Overcast
12:35 PM 42.8 °F 38.0 °F 32.0 °F 66% 29.56 in 10.0 mi West 8.1 mph - N/A   Overcast
12:55 PM 42.8 °F 38.0 °F 32.0 °F 66% 29.56 in 10.0 mi West 8.1 mph - N/A   Overcast
1:15 PM 44.6 °F 39.2 °F 32.0 °F 61% 29.56 in 10.0 mi WNW 10.4 mph - N/A   Overcast
1:55 PM 42.8 °F 38.6 °F 32.0 °F 66% 29.55 in 10.0 mi North 6.9 mph - N/A   Overcast
2:15 PM 42.8 °F 36.6 °F 33.8 °F 70% 29.55 in 10.0 mi NW 11.5 mph - N/A   Overcast
2:35 PM 42.8 °F 39.3 °F 32.0 °F 66% 29.55 in 10.0 mi NW 5.8 mph - N/A   Overcast
2:55 PM 42.8 °F 38.6 °F 33.8 °F 70% 29.55 in 10.0 mi WNW 6.9 mph - N/A   Overcast
3:15 PM 44.6 °F 40.2 °F 33.8 °F 66% 29.55 in 10.0 mi West 8.1 mph - N/A   Overcast
3:35 PM 44.6 °F 39.7 °F 30.2 °F 57% 29.56 in 10.0 mi WNW 9.2 mph - N/A   Overcast
3:55 PM 44.6 °F 40.7 °F 30.2 °F 57% 29.56 in 10.0 mi WNW 6.9 mph - N/A   Overcast
4:15 PM 44.6 °F 40.2 °F 30.2 °F 57% 29.57 in 10.0 mi NW 8.1 mph - N/A   Overcast
4:35 PM 44.6 °F 42.2 °F 30.2 °F 57% 29.57 in 10.0 mi WNW 4.6 mph - N/A   Overcast
4:56 PM 42.8 °F 38.6 °F 30.2 °F 61% 29.57 in 10.0 mi NW 6.9 mph - N/A   Overcast
5:15 PM 42.8 °F 37.0 °F 30.2 °F 61% 29.58 in 10.0 mi NW 10.4 mph - N/A   Overcast
5:35 PM 42.8 °F 40.1 °F 30.2 °F 61% 29.58 in 10.0 mi NW 4.6 mph - N/A   Overcast
5:55 PM 42.8 °F 40.1 °F 30.2 °F 61% 29.59 in 10.0 mi NW 4.6 mph - N/A   Overcast
6:15 PM 42.8 °F 41.1 °F 30.2 °F 61% 29.59 in 10.0 mi NW 3.5 mph - N/A   Overcast
6:35 PM 42.8 °F 38.6 °F 30.2 °F 61% 29.60 in 10.0 mi NW 6.9 mph - N/A   Overcast
6:55 PM 42.8 °F 39.3 °F 28.4 °F 57% 29.61 in 10.0 mi WNW 5.8 mph - N/A   Overcast
7:15 PM 42.8 °F 40.1 °F 30.2 °F 61% 29.62 in 10.0 mi NW 4.6 mph - N/A   Overcast
7:35 PM 42.8 °F 39.3 °F 30.2 °F 61% 29.62 in 10.0 mi WNW 5.8 mph - N/A   Overcast
7:55 PM 42.8 °F 40.1 °F 30.2 °F 61% 29.62 in 10.0 mi WNW 4.6 mph - N/A   Overcast
8:16 PM 41.0 °F 39.0 °F 30.2 °F 65% 29.63 in 10.0 mi WNW 3.5 mph - N/A   Overcast
8:35 PM 41.0 °F 39.0 °F 30.2 °F 65% 29.63 in 10.0 mi NW 3.5 mph - N/A   Overcast
9:15 PM 41.0 °F 37.1 °F 30.2 °F 65% 29.64 in 10.0 mi NW 5.8 mph - N/A   Overcast
9:35 PM 41.0 °F 36.4 °F 30.2 °F 65% 29.64 in 10.0 mi WNW 6.9 mph - N/A   Overcast
9:55 PM 39.2 °F 35.0 °F 30.2 °F 70% 29.65 in 10.0 mi WNW 5.8 mph - N/A   Overcast
10:15 PM 39.2 °F 35.9 °F 30.2 °F 70% 29.65 in 10.0 mi WNW 4.6 mph - N/A   Overcast
10:35 PM 39.2 °F 37.0 °F 30.2 °F 70% 29.65 in 10.0 mi WNW 3.5 mph - N/A   Overcast
10:55 PM 39.2 °F 35.9 °F 30.2 °F 70% 29.65 in 10.0 mi WNW 4.6 mph - N/A   Overcast
11:15 PM 39.2 °F 35.0 °F 30.2 °F 70% 29.65 in 10.0 mi WNW 5.8 mph - N/A   Overcast
11:35 PM 39.2 °F 35.9 °F 32.0 °F 75% 29.66 in 10.0 mi WNW 4.6 mph - N/A   Overcast
11:55 PM 39.2 °F 35.0 °F 33.8 °F 81% 29.66 in 10.0 mi WNW 5.8 mph - N/A   Overcast